Home > Weather > Eisenstadt > Past weeks

Flag for Austria Weather for the Past 2 Weeks in Eisenstadt, Burgenland, Austria

Now
42 °F

Clear.


Feels Like: 39 °F
Forecast: 30 / 42 °F
Wind: 6 mph from West

Location: Eisenstadt

Current Time: Feb 11, 2016 at 8:33:33 PM

Latest Report: Feb 11, 2016 at 7:00 PM


Visibility: 13 mi

Pressure: 29.79 "Hg

Humidity: 52%

Dew point: 26 °F

Location of EisenstadtLocation

Historic Weather in Eisenstadt — Graph

°F

Eisenstadt Temperature Yesterday

Maximum temperature yesterday: 52 °F (at 12:00 AM)
Minimum temperature yesterday: 40 °F (at 9:00 AM)
Average temperature yesterday: 43 °F

High & Low Weather Summary for the Past Weeks

 TemperatureHumidityPressure
High60 °F (Feb 1, 1:00 PM)100% (Jan 30, 8:00 PM)30.43 "Hg (Jan 30, 8:00 PM)
Low32 °F (Feb 6, 8:00 AM)42% (Feb 7, 11:00 AM)29.26 "Hg (Feb 10, 10:00 AM)
Average44 °F76%29.99 "Hg
* Reported Jan 27 7:00 PM — Feb 11 7:00 PM, Eisenstadt, Weather by CustomWeather, © 2016

Note: Actual official high and low records may vary slightly from our data, if they occured in-between our weather recording intervals... More about our weather records

Advertising

Eisenstadt Weather History for the Previous 24 Hours

 ConditionsComfort  
Time TempWeatherWind HumidityBarometerVisibility
7:00 PM
Thu, Feb 11
42 °FClear.6 mph52%29.79 "Hg12 mi
6:00 PM40 °FChilly.3 mph67%29.79 "HgN/A
5:00 PM43 °FQuite cool.5 mph59%29.78 "HgN/A
4:00 PM44 °FScattered clouds.3 mph56%29.77 "Hg19 mi
3:00 PM46 °FCool.8 mph53%29.76 "HgN/A
2:00 PM45 °FQuite cool.7 mph53%29.74 "HgN/A
1:00 PM46 °FCool.7 mph51%29.74 "HgN/A
12:00 PM44 °FQuite cool.7 mph55%29.74 "HgN/A
11:00 AM44 °FQuite cool.9 mph54%29.73 "HgN/A
10:00 AM44 °FQuite cool.3 mph56%29.71 "HgN/A
9:00 AM42 °FQuite cool.5 mph57%29.70 "HgN/A
8:00 AM41 °FQuite cool.5 mph60%29.69 "HgN/A
7:00 AM40 °FPassing clouds.2 mph63%29.68 "Hg16 mi
5:00 AM41 °FPassing clouds.7 mph55%29.64 "Hg6 mi
9:00 PM
Wed, Feb 10
41 °FQuite cool.9 mph63%29.47 "HgN/A
8:00 PM41 °FQuite cool.9 mph63%29.47 "HgN/A
Weather by CustomWeather, © 2016

See weather overviewHow to use our weather pages